[[{"header":{"parameterUnit":"m.s-1","parameterCategory":1,"la1":30.2991,"la2":30.254,"lo1":-89.0895,"lo2":-89.0444,"dy":0.0017,"dx":0.0017,"nx":28,"ny":28,"refTime":"2025-03-16T03:00:00:Z","depth":0,"parameterNumber":2,"parameterNumberName":"U-component_of_WINDS"},"data":[0,0,0,0,0,0,0,0,0,0,0,0,0,0,0,0,0,0,0,0,0,0,0,0,0,0,0,0,0,0,0,0,0,0,0,0,0,0,0,0,0,0,0,0,0,0,0,0,0,0,0,0,0,0,0,0,0,0,2.9787,2.9788,0,2.9863,2.9864,2.9864,2.9833,2.9831,2.9829,2.9827,2.9905,2.9909,2.9912,0,0,0,0,0,0,0,0,0,0,0,0,0,2.9617,2.9621,2.9787,2.9788,2.9789,2.9863,2.9864,2.9865,2.9833,2.9831,2.9829,2.9826,2.9904,2.9908,2.9913,0,0,0,0,0,0,0,0,0,0,0,0,0,2.9692,2.9622,2.9787,2.9782,2.9782,2.9862,2.9864,2.9865,2.9833,2.9831,2.9828,2.9825,2.9902,2.9908,2.9913,3.0003,0,0,2.9931,2.9933,0,0,0,0,0,0,0,0,2.9688,2.9698,2.9782,2.9783,2.9783,2.9835,2.9832,2.9911,2.9834,2.9814,2.9827,2.9824,2.9884,2.9891,2.9911,3.0006,3.001,2.9931,2.9935,2.9937,2.9939,0,0,0,0,0,0,0,2.9683,2.9695,2.9817,2.9783,2.9784,2.9777,2.9784,2.9847,2.9864,2.9816,2.9814,2.9823,2.9884,2.9906,2.9913,3.0011,2.9931,2.9936,2.9939,2.9942,3.0185,3.0188,0,0,0,0,0,0,2.9677,2.9691,2.9815,2.9819,2.9728,2.9782,2.979,2.9821,2.9863,2.9866,2.9825,2.9821,2.9898,2.9906,2.9915,3.0024,2.9937,2.9942,2.9945,3.0182,3.0186,3.0189,0,0,0,0,0,0,2.9674,2.9689,2.9812,2.9755,2.977,2.9788,2.9823,2.9824,2.9846,2.987,2.9873,2.9844,2.9896,2.9908,2.9982,3.0026,2.9945,2.995,3.0179,3.0183,3.0188,3.0241,0,0,0,0,0,0,2.9669,2.9687,2.9721,2.9755,2.9773,2.9876,2.9826,2.9828,2.9856,2.9851,2.9889,2.9892,2.9895,2.9973,2.9987,3.0032,2.9954,3.0175,3.0181,3.0186,3.0235,3.0247,3.0257,0,0,0,0,0,2.9663,2.9733,2.9723,2.9738,2.9815,2.9879,2.9889,2.989,2.986,2.9894,2.991,2.9891,3.0019,2.9981,2.9997,3.0044,3.0172,3.0179,3.0186,3.023,3.0245,3.0256,0,0,0,0,0,0,2.9702,2.9737,2.9726,2.9809,2.9842,2.9873,2.9916,2.9904,2.9946,2.994,2.9939,2.9948,3.0025,3.0042,2.9999,3.0134,3.0091,3.0101,3.012,3.0133,3.0144,3.0138,2.9959,0,0,0,0,0,2.9721,2.9769,2.9797,2.9868,2.9884,2.9898,2.9926,2.9924,2.9957,2.997,2.9991,3.0025,3.0072,3.0104,3.0149,3.0238,3.0246,3.0278,3.0289,3.0298,3.0307,3.0357,3.0371,3.0212,3.0212,3.0212,0,0,2.9759,2.9784,2.9815,2.9876,2.9901,2.9952,2.9909,2.9964,3.0003,2.9979,3.005,3.0067,3.0104,3.0187,3.0224,3.0203,3.0353,3.0307,3.0313,3.0318,3.0365,3.038,3.0394,3.0217,3.0216,3.0215,0,0,2.9855,2.9879,2.9941,2.9967,3.0005,3.0014,3.0029,3.0063,3.0073,3.0145,3.0129,3.0175,3.0257,3.0285,3.0309,3.0419,3.0404,3.0434,3.0489,3.0538,3.0551,3.0562,3.0602,3.0616,3.0442,3.0443,3.0443,0,2.9898,2.9974,2.9974,3.0031,3.0059,3.0041,3.0104,3.013,3.0181,3.0201,3.0177,3.0281,3.0305,3.0394,3.0421,3.0441,3.0459,3.0429,3.0549,3.056,3.057,3.0608,3.0623,3.0446,3.0446,3.0445,3.0445,0,3.0025,3.0078,3.0124,3.0174,3.0208,3.0268,3.0278,3.0312,3.0308,3.032,3.0394,3.0422,3.0474,3.0495,3.0491,3.0585,3.0571,3.0548,3.0505,3.0589,3.0625,3.0639,3.0451,3.045,3.0449,3.0448,0,0,3.0147,3.0198,3.0215,3.0238,3.028,3.0321,3.0381,3.0432,3.0462,3.0498,3.0549,3.062,3.06,3.0628,3.0628,3.0671,3.0757,3.0643,3.0644,3.0664,3.0863,3.088,3.0897,3.0748,3.075,3.0753,3.086,0,3.0246,3.0351,3.0354,3.0451,3.05,3.0485,3.0537,3.0569,3.0582,3.0627,3.0642,3.0693,3.0661,3.0679,3.072,3.0738,3.0797,3.073,3.0796,3.0798,3.0787,3.0916,3.0933,3.1034,3.0874,3.0877,3.0878,0,3.0376,3.0418,3.0519,3.0555,3.0576,3.0623,3.0671,3.0714,3.075,3.0757,3.079,3.0784,3.0847,3.0802,3.0889,3.0843,3.0871,3.0884,3.0888,3.0894,3.0843,3.0926,3.1065,3.1081,3.09,3.0899,3.0897,0,3.0456,3.0537,3.0608,3.0629,3.0673,3.0706,3.0726,3.076,3.0791,3.0833,3.0854,3.0902,3.0929,3.0968,3.0975,3.0942,3.1063,3.1019,3.1071,3.1071,3.1097,3.1095,3.1243,3.1114,3.1114,3.1114,3.1114,0,3.0567,3.063,3.0645,3.0689,3.0759,3.0763,3.0833,3.085,3.0881,3.0929,3.0919,3.0964,3.0972,3.1019,3.1026,3.1098,3.111,3.1118,3.1119,3.1119,3.1118,3.1136,3.113,3.1118,3.1117,3.1116,3.1116,0,3.0667,3.068,3.0757,3.0793,3.0803,3.0854,3.0885,3.0928,3.0941,3.1002,3.1016,3.1037,3.1092,3.1104,3.117,3.1174,3.126,3.1254,3.1248,3.1247,3.1299,3.1294,3.1465,3.1488,3.1343,3.1345,3.1346,0,3.0737,3.0785,3.0827,3.0858,3.088,3.093,3.0962,3.0969,3.1002,3.1049,3.1087,3.1141,3.1185,3.1275,3.1296,3.1347,3.1342,3.1398,3.135,3.1349,3.1344,3.1341,3.1346,3.1408,3.1409,3.141,3.1411,0,3.086,3.0864,3.091,3.096,3.0998,3.1037,3.1074,3.1101,3.1112,3.1151,3.1208,3.1242,3.131,3.1365,3.1416,3.1437,3.1427,3.1427,3.1442,3.1442,3.1437,3.1441,3.1273,3.1423,3.1422,3.1421,3.142,3.142,3.0948,3.099,3.1027,3.1079,3.1108,3.1143,3.1186,3.1205,3.1252,3.1308,3.1309,3.1371,3.1409,3.1477,3.1502,3.1551,3.1534,3.1555,3.1561,3.1566,3.1571,3.1429,3.1561,3.156,3.156,3.156,3.156,0,3.1071,3.1094,3.1142,3.1195,3.1237,3.1223,3.1264,3.13,3.1355,3.1391,3.1435,3.1501,3.1555,3.1581,3.1635,3.167,3.1666,3.1684,3.1681,3.1686,3.1583,3.1565,3.1685,3.1685,3.1685,3.1685,3.1685,3.1685,3.114,3.1212,3.1221,3.1308,3.1331,3.1392,3.1416,3.145,3.1478,3.1553,3.1598,3.1614,3.1647,3.1703,3.1752,3.1759,3.1779,3.1799,3.1803,3.1706,3.1693,3.1681,3.1664,3.1803,3.1803,3.1902,3.1903,3.1904]},{"header":{"parameterUnit":"m.s-1","parameterCategory":1,"la1":30.2991,"la2":30.254,"lo1":-89.0895,"lo2":-89.0444,"dy":0.0017,"dx":0.0017,"nx":28,"ny":28,"refTime":"2025-03-16T03:00:00:Z","depth":0,"parameterNumber":3,"parameterNumberName":"V-component_of_WINDS"},"data":[0,0,0,0,0,0,0,0,0,0,0,0,0,0,0,0,0,0,0,0,0,0,0,0,0,0,0,0,0,0,0,0,0,0,0,0,0,0,0,0,0,0,0,0,0,0,0,0,0,0,0,0,0,0,0,0,0,0,-6.2285,-6.2288,0,-6.2555,-6.2558,-6.2561,-6.2542,-6.2538,-6.2534,-6.253,-6.2808,-6.2818,-6.2829,0,0,0,0,0,0,0,0,0,0,0,0,0,-6.1756,-6.1765,-6.2285,-6.2288,-6.2292,-6.2554,-6.2558,-6.2562,-6.2543,-6.2538,-6.2533,-6.2528,-6.2804,-6.2817,-6.283,0,0,0,0,0,0,0,0,0,0,0,0,0,-6.2001,-6.1769,-6.2284,-6.2314,-6.2319,-6.2554,-6.2558,-6.2563,-6.2544,-6.2538,-6.2532,-6.2526,-6.2799,-6.2816,-6.2832,-6.3055,0,0,-6.2883,-6.289,0,0,0,0,0,0,0,0,-6.1988,-6.2021,-6.2306,-6.2312,-6.2319,-6.2509,-6.2473,-6.2728,-6.2545,-6.2458,-6.253,-6.2523,-6.2713,-6.2736,-6.28,-6.3068,-6.308,-6.2885,-6.2895,-6.2902,-6.2907,0,0,0,0,0,0,0,-6.1971,-6.2009,-6.2392,-6.231,-6.2318,-6.2314,-6.2343,-6.2521,-6.2616,-6.2466,-6.2465,-6.2497,-6.2715,-6.2784,-6.2807,-6.3084,-6.2884,-6.2899,-6.2909,-6.2916,-6.3552,-6.3559,0,0,0,0,0,0,-6.1947,-6.1995,-6.2383,-6.24,-6.2135,-6.2329,-6.236,-6.2454,-6.2614,-6.2633,-6.2502,-6.2495,-6.2759,-6.2787,-6.2816,-6.309,-6.2902,-6.2917,-6.2927,-6.3545,-6.3554,-6.3561,0,0,0,0,0,0,-6.1935,-6.1981,-6.2372,-6.2198,-6.2247,-6.2344,-6.2449,-6.2462,-6.2531,-6.2642,-6.2658,-6.2555,-6.2755,-6.2793,-6.2997,-6.31,-6.2925,-6.294,-6.3537,-6.3548,-6.3557,-6.3639,0,0,0,0,0,0,-6.192,-6.1977,-6.2063,-6.22,-6.2256,-6.2548,-6.2456,-6.2472,-6.256,-6.2554,-6.2696,-6.2714,-6.2753,-6.2972,-6.3013,-6.3119,-6.2953,-6.3528,-6.3542,-6.3554,-6.3628,-6.3651,-6.3671,0,0,0,0,0,-6.1901,-6.2075,-6.2067,-6.2114,-6.2365,-6.2554,-6.2586,-6.2628,-6.2568,-6.2655,-6.2727,-6.2709,-6.3081,-6.2993,-6.3039,-6.3152,-6.3522,-6.3538,-6.3553,-6.3618,-6.3646,-6.367,0,0,0,0,0,0,-6.1947,-6.2093,-6.2086,-6.2309,-6.2419,-6.255,-6.2661,-6.2657,-6.2786,-6.2775,-6.2822,-6.2854,-6.306,-6.3126,-6.3025,-6.3378,-6.3294,-6.3319,-6.3327,-6.3355,-6.3376,-6.3357,-6.2967,0,0,0,0,0,-6.1983,-6.2124,-6.2244,-6.2429,-6.2484,-6.2563,-6.2647,-6.267,-6.2786,-6.2833,-6.2919,-6.3033,-6.3176,-6.3269,-6.3406,-6.3636,-6.3668,-6.3737,-6.3759,-6.3776,-6.3798,-6.3927,-6.396,-6.3612,-6.3612,-6.3612,0,0,-6.2059,-6.2156,-6.2242,-6.244,-6.2528,-6.2674,-6.2603,-6.2759,-6.2868,-6.2857,-6.3055,-6.3122,-6.3252,-6.3471,-6.3572,-6.3533,-6.3901,-6.3796,-6.3808,-6.3822,-6.3947,-6.3979,-6.4009,-6.3622,-6.3621,-6.3619,0,0,-6.2273,-6.2359,-6.2524,-6.2614,-6.2748,-6.28,-6.2839,-6.2972,-6.3016,-6.3216,-6.3211,-6.3341,-6.3586,-6.368,-6.3759,-6.401,-6.4,-6.4053,-6.4167,-6.4292,-6.432,-6.4344,-6.4436,-6.4468,-6.4074,-6.4075,-6.4075,0,-6.235,-6.2569,-6.2609,-6.2768,-6.2856,-6.2852,-6.302,-6.3106,-6.3278,-6.334,-6.3293,-6.3602,-6.3689,-6.3931,-6.3992,-6.4056,-6.4104,-6.4038,-6.4312,-6.4337,-6.4361,-6.4449,-6.4483,-6.408,-6.408,-6.4079,-6.4079,0,-6.2659,-6.2811,-6.2928,-6.3095,-6.3196,-6.3359,-6.3425,-6.3523,-6.3537,-6.3594,-6.3798,-6.3903,-6.4062,-6.4121,-6.4136,-6.4366,-6.4338,-6.4302,-6.4219,-6.4399,-6.4483,-6.4517,-6.4089,-6.4087,-6.4085,-6.4084,0,0,-6.2909,-6.3097,-6.314,-6.3216,-6.3365,-6.3484,-6.3647,-6.3803,-6.3887,-6.4006,-6.4145,-6.4353,-6.4321,-6.4411,-6.4437,-6.4547,-6.4742,-6.4497,-6.4501,-6.4541,-6.5004,-6.5033,-6.5071,-6.4735,-6.4741,-6.4747,-6.4994,0,-6.3139,-6.3428,-6.3469,-6.3725,-6.3867,-6.3866,-6.4008,-6.4115,-6.4173,-6.4303,-6.4366,-6.4514,-6.4459,-6.4514,-6.4622,-6.4695,-6.4836,-6.4677,-6.4867,-6.4873,-6.4836,-6.5114,-6.5144,-6.5373,-6.5027,-6.5032,-6.5036,0,-6.3446,-6.3574,-6.3844,-6.3975,-6.4036,-6.4163,-6.4311,-6.4434,-6.4557,-6.4591,-6.4693,-6.4706,-6.4876,-6.4785,-6.5021,-6.4913,-6.4993,-6.504,-6.505,-6.5071,-6.4967,-6.5145,-6.5446,-6.5481,-6.5088,-6.5084,-6.508,0,-6.3604,-6.3844,-6.4037,-6.4103,-6.426,-6.435,-6.4419,-6.4535,-6.4627,-6.4756,-6.4817,-6.4964,-6.5045,-6.5159,-6.5212,-6.514,-6.5446,-6.5358,-6.5481,-6.548,-6.5547,-6.5543,-6.5868,-6.5595,-6.5595,-6.5594,-6.5593,0,-6.3858,-6.4024,-6.4111,-6.423,-6.4416,-6.4462,-6.4646,-6.4713,-6.4816,-6.4949,-6.4957,-6.5081,-6.5142,-6.5277,-6.5319,-6.551,-6.5546,-6.558,-6.559,-6.5581,-6.5577,-6.5635,-6.5621,-6.5603,-6.5601,-6.5599,-6.5598,0,-6.4067,-6.4132,-6.4342,-6.4474,-6.4511,-6.4643,-6.4756,-6.4872,-6.4929,-6.5097,-6.514,-6.5229,-6.5388,-6.5452,-6.5646,-6.5674,-6.5895,-6.5891,-6.5854,-6.5858,-6.5978,-6.5967,-6.6354,-6.6408,-6.6097,-6.61,-6.6102,0,-6.4226,-6.4353,-6.4499,-6.4588,-6.4661,-6.4805,-6.4899,-6.495,-6.5048,-6.5198,-6.5297,-6.5455,-6.5585,-6.5839,-6.5922,-6.6071,-6.6072,-6.6198,-6.6095,-6.6083,-6.6077,-6.607,-6.6084,-6.6217,-6.622,-6.6223,-6.6225,0,-6.4501,-6.4527,-6.4662,-6.481,-6.4922,-6.504,-6.5155,-6.5228,-6.5297,-6.5407,-6.557,-6.567,-6.5869,-6.6028,-6.6182,-6.6254,-6.6253,-6.6257,-6.6294,-6.6287,-6.6261,-6.6279,-6.5908,-6.6248,-6.6246,-6.6244,-6.6243,-6.6242,-6.4692,-6.4806,-6.4927,-6.5078,-6.517,-6.5278,-6.5394,-6.5466,-6.5602,-6.5768,-6.579,-6.5965,-6.6086,-6.6293,-6.6372,-6.651,-6.6478,-6.653,-6.6544,-6.6557,-6.6567,-6.6237,-6.6538,-6.6538,-6.6537,-6.6537,-6.6536,0,-6.497,-6.5047,-6.5186,-6.5347,-6.5467,-6.5453,-6.5581,-6.5682,-6.5836,-6.5948,-6.6076,-6.6264,-6.6418,-6.6513,-6.6669,-6.6761,-6.6765,-6.6801,-6.6795,-6.6813,-6.6585,-6.6539,-6.6796,-6.6795,-6.6795,-6.6795,-6.6795,-6.6795,-6.5128,-6.5322,-6.5362,-6.5602,-6.5679,-6.5851,-6.5925,-6.6025,-6.6116,-6.6325,-6.6453,-6.6514,-6.6621,-6.6784,-6.6926,-6.695,-6.7008,-6.7047,-6.7069,-6.6855,-6.6828,-6.6803,-6.676,-6.7058,-6.7059,-6.7285,-6.7287,-6.7289]}]]